Theta_e
319 319 319 319 319 319 319 319 320 320 319 318 318 317 317 317 318 319 319 319 318 318 318 319 319 319 319 319 320 322 323 323 323 323 323 322 322 322 321 321 320 320 320 320 321 322 323 323 323 322 322 322 322 322 322 322 323 322 322 322 322 321 321 321 320 320 320 318 318 318 317 315 314 312 311 309 308 308 307 307 307 307 307 307 307
319 319 319 319 318 318 318 318 318 318 317 317 317 317 318 318 319 319 318 317 317 317 317 318 318 318 318 319 320 322 322 322 322 321 321 321 320 320 320 319 319 319 319 320 321 322 323 323 323 323 323 323 323 323 323 323 323 322 321 321 321 320 319 319 319 320 320 319 318 317 316 313 312 311 310 309 308 307 306 306 305 305 305 305 305
319 319 318 318 318 317 317 318 317 317 317 317 317 318 319 319 319 318 316 316 316 316 316 316 316 317 317 318 319 320 320 320 320 319 318 318 318 318 318 317 317 318 318 319 320 322 323 323 323 322 322 323 322 322 321 322 322 320 320 319 320 320 319 319 319 320 319 319 317 314 313 312 310 309 308 308 307 306 305 305 304 304 304 303 303
319 318 318 318 317 317 317 317 318 318 318 318 318 319 319 319 318 317 316 316 316 316 316 316 316 316 317 317 317 318 318 317 317 316 316 316 316 316 316 316 317 318 318 319 320 322 322 322 322 322 322 322 322 320 320 321 321 320 319 318 318 318 319 319 319 319 318 317 315 312 311 310 309 308 307 306 305 305 304 303 303 303 303 302 302
319 319 318 318 318 318 318 318 318 318 318 318 318 319 319 318 317 316 316 316 316 316 316 316 316 316 316 316 316 316 315 315 314 314 314 314 314 315 315 316 317 318 318 319 320 322 323 323 323 322 321 321 321 320 321 321 320 319 318 318 318 319 318 318 317 316 315 314 312 311 309 309 308 307 306 305 304 303 303 302 302 302 302 302 302
319 319 318 318 318 318 318 318 318 318 317 317 318 319 319 318 317 317 316 316 316 315 316 316 315 315 315 314 314 314 314 313 313 313 314 314 314 315 316 317 317 318 319 320 321 323 323 323 322 322 321 321 321 321 321 320 318 318 317 318 318 317 315 313 312 312 311 312 311 310 309 307 306 305 304 304 303 302 302 302 302 301 301 301 301
318 318 318 318 318 318 318 318 318 318 318 317 318 318 318 318 318 317 316 316 316 316 315 315 314 314 314 314 314 314 313 314 314 314 315 315 315 316 316 317 317 318 320 321 323 323 323 323 322 322 321 321 321 320 319 318 317 316 316 315 315 314 312 311 310 310 310 310 309 308 307 306 305 304 303 302 302 302 301 301 301 301 301 301 301
318 318 318 318 318 318 318 318 318 318 318 318 318 318 318 317 316 316 316 315 315 315 315 314 314 314 314 314 314 314 314 314 315 315 315 315 316 316 316 317 318 320 321 322 322 323 323 322 322 322 321 321 320 318 317 316 315 314 314 314 312 311 310 310 310 309 309 309 308 307 306 305 303 302 301 301 301 301 301 301 300 301 301 301 301
318 317 317 318 318 318 318 318 319 319 319 319 319 318 317 317 316 316 315 315 315 314 315 314 314 314 314 314 314 314 315 315 315 315 315 315 316 316 317 319 320 321 321 321 322 322 322 322 322 321 320 318 316 315 314 313 314 313 312 311 310 310 310 310 310 309 308 307 306 305 304 303 302 301 301 301 301 301 300 300 300 301 301 301 301
316 316 317 317 317 317 317 318 318 319 319 319 319 318 317 316 316 315 315 315 315 315 315 315 315 315 314 314 314 314 314 314 314 314 315 315 316 316 318 319 320 321 321 321 322 322 321 320 319 318 316 315 313 313 313 312 311 311 310 310 310 310 310 309 308 307 306 305 304 303 302 301 301 301 301 301 301 300 300 300 300 301 301 301 302
316 315 316 316 317 317 317 317 318 318 318 319 318 318 317 316 315 315 314 315 315 315 315 315 315 315 314 314 313 313 313 313 313 313 314 315 315 316 318 319 319 320 320 320 320 320 319 318 316 314 313 313 312 312 311 311 310 310 310 310 310 309 308 307 306 305 304 303 302 301 301 301 301 301 300 300 300 300 300 300 300 300 300 300 301
316 315 315 316 316 317 317 317 317 317 318 318 319 318 316 315 314 314 315 315 316 316 316 316 315 314 314 313 313 313 312 312 312 312 313 314 315 316 317 318 319 319 319 319 318 317 316 314 313 312 312 312 311 310 310 310 310 310 309 309 308 307 305 304 304 303 303 302 301 301 301 301 301 300 300 300 299 300 300 299 299 300 300 300 300
316 315 315 315 315 316 317 316 317 317 317 318 318 317 315 314 314 315 315 316 316 316 316 315 315 315 314 314 314 313 313 312 312 313 313 314 315 316 316 317 317 317 317 316 315 313 312 312 311 311 311 310 310 310 309 309 309 308 307 306 305 304 303 303 303 302 301 301 301 301 301 301 300 300 299 299 299 299 299 299 299 299 299 299 299
315 314 314 314 314 315 316 316 316 317 317 317 317 316 315 314 315 315 315 316 316 315 316 315 315 315 315 315 314 314 314 313 312 313 313 314 315 315 315 315 314 314 313 312 312 311 311 311 310 310 310 309 309 309 308 307 306 305 304 303 303 302 302 302 301 301 300 300 300 300 300 300 299 299 298 298 299 299 299 299 299 299 299 299 299
314 314 314 313 313 314 316 316 316 316 316 317 316 315 314 314 315 315 315 316 315 315 315 315 315 315 315 315 315 314 314 313 312 312 312 313 313 312 312 312 311 311 310 310 310 310 310 310 309 309 308 308 307 306 305 304 303 303 302 302 302 301 301 301 300 300 300 300 299 299 299 298 298 298 298 298 298 298 298 298 298 298 298 298 298
313 313 313 313 312 314 316 316 316 315 316 316 314 314 314 314 315 315 315 315 314 314 314 314 314 314 314 314 314 314 314 314 313 311 311 311 311 310 310 310 310 310 310 310 310 310 309 308 307 306 305 304 303 303 302 302 302 302 301 301 301 301 300 300 300 299 299 298 298 298 298 298 297 297 298 298 298 298 298 298 298 297 298 298 298
313 313 313 313 313 314 316 316 316 315 315 315 314 314 314 314 314 315 314 314 314 313 313 314 314 314 314 314 314 314 314 314 313 312 311 311 311 310 311 311 310 310 310 309 308 307 306 305 304 303 302 302 302 302 301 301 301 301 300 300 300 299 299 299 299 298 298 298 297 297 297 297 297 297 297 297 297 297 297 297 297 297 297 297 298
314 314 314 313 314 315 316 316 316 316 315 314 314 313 313 314 314 314 314 314 313 313 313 313 313 313 313 313 313 313 313 313 312 312 311 310 310 309 309 309 308 308 307 305 304 303 302 302 301 301 301 301 301 301 301 300 300 299 299 299 298 298 298 298 297 297 297 297 297 297 297 297 297 297 297 297 297 296 296 296 296 296 296 296 297
314 314 314 314 315 315 315 316 316 316 315 315 314 313 313 314 314 314 314 313 313 313 313 313 313 313 312 312 312 312 312 311 310 310 309 308 307 306 306 305 304 304 303 302 302 301 301 301 301 301 301 300 300 300 299 299 298 298 298 298 297 297 297 297 297 297 297 297 297 297 297 297 297 297 297 297 296 296 296 296 296 295 296 296 296
314 314 315 315 315 315 315 316 316 316 316 314 313 313 313 313 313 313 313 313 312 312 312 312 312 311 311 311 311 311 310 309 308 307 306 305 304 303 302 302 302 301 301 301 301 301 301 300 300 300 300 299 299 299 298 298 298 298 297 297 297 297 297 297 297 297 297 297 297 297 297 297 297 297 297 297 296 296 296 296 295 295 295 295 295
314 315 315 315 315 315 315 315 315 316 315 314 312 312 313 313 313 313 313 312 312 312 311 311 310 310 310 309 309 309 308 306 305 304 303 303 302 301 301 300 300 300 300 301 301 301 300 300 299 299 298 298 298 298 298 298 297 297 297 297 297 297 297 297 297 296 297 297 297 297 297 298 297 297 297 297 297 297 296 296 296 295 295 295 295
314 315 315 314 314 314 314 314 314 315 314 312 311 311 312 312 313 312 312 311 311 310 310 309 309 308 308 308 307 306 305 304 303 302 301 301 300 300 300 300 300 300 300 300 299 299 299 298 298 298 297 298 297 297 297 297 297 297 296 296 296 296 296 296 296 296 296 297 297 297 297 298 298 297 297 297 296 296 296 295 295 295 295 295 295
314 314 314 314 313 313 313 313 313 313 313 311 311 311 312 312 312 311 311 311 310 309 309 308 307 307 307 306 305 304 303 302 302 301 300 300 300 300 300 300 299 299 298 298 298 298 298 297 297 297 297 297 297 297 297 296 296 296 296 296 296 296 296 296 296 296 297 297 297 297 297 297 297 297 296 296 295 295 295 295 295 295 295 294 294
314 314 313 313 312 312 312 312 312 312 311 310 310 310 311 311 311 310 310 310 309 308 307 307 306 306 306 305 303 302 301 300 300 299 299 299 299 299 299 298 298 298 297 297 297 297 297 297 297 297 297 297 297 296 296 296 296 296 296 296 296 295 295 296 296 296 296 297 297 297 297 296 296 296 295 295 295 294 294 294 294 294 294 294 294
313 313 313 312 311 310 310 311 311 311 310 308 308 309 310 310 310 309 309 308 308 307 307 306 305 305 304 303 302 301 300 299 298 298 298 298 297 297 297 297 296 296 297 297 297 297 297 297 297 297 296 296 297 296 296 296 296 296 296 295 296 295 296 296 296 296 296 296 296 296 296 295 295 295 294 294 294 294 294 294 294 294 294 294 294
312 312 312 311 310 309 309 309 309 310 309 308 307 308 308 308 308 307 307 306 305 305 305 304 303 302 301 301 300 299 298 298 298 298 297 296 296 296 296 297 297 297 298 298 298 297 296 296 296 296 296 296 296 296 296 295 295 295 295 295 295 295 295 295 296 296 296 295 295 295 295 294 294 294 294 293 293 293 293 293 293 292 292 292 292
310 309 310 310 309 307 307 307 307 307 307 307 307 307 306 306 305 305 304 304 303 302 302 302 301 300 300 299 298 298 297 297 297 296 296 296 297 297 298 299 299 298 297 297 296 296 295 295 295 295 295 295 295 295 295 295 294 294 294 295 295 295 295 295 295 295 295 294 294 294 294 293 293 293 293 293 292 292 292 292 291 291 291 291 291
307 307 307 307 307 306 305 305 304 304 304 305 305 305 304 303 302 302 301 301 301 301 301 300 300 299 298 297 296 296 296 297 297 298 298 298 299 299 299 298 297 296 296 295 295 295 295 295 295 295 295 295 294 294 294 294 294 294 294 294 294 294 294 294 294 294 294 294 293 293 293 293 293 292 292 292 291 291 291 290 290 290 289 289 289
305 304 304 304 305 304 304 303 302 301 301 301 302 302 301 301 301 300 299 299 298 298 298 297 297 296 296 296 297 298 299 300 300 300 300 300 298 297 296 296 295 295 294 294 294 294 294 294 294 294 294 294 294 293 294 294 294 294 294 294 294 294 294 294 294 293 293 293 293 293 292 292 291 291 290 290 290 290 290 289 289 289 289 289 289
302 302 302 302 302 302 303 302 301 300 299 299 299 299 298 298 297 297 296 295 294 294 294 295 295 296 296 297 298 299 299 299 298 299 299 299 296 294 294 294 294 294 294 294 294 294 293 293 293 293 293 293 293 293 294 294 294 294 294 294 294 294 294 293 293 293 293 293 292 292 291 291 290 290 289 289 289 289 289 288 288 288 288 289 289
299 299 299 299 299 300 300 300 299 298 298 297 296 296 295 294 294 294 294 294 294 294 295 296 297 297 297 298 297 296 295 296 296 295 295 294 293 292 292 292 293 293 293 293 293 293 292 292 293 293 293 293 294 294 294 294 294 294 294 294 293 293 293 293 293 292 292 292 291 291 290 290 289 289 288 288 288 288 288 288 288 288 288 289 289
297 298 297 297 296 296 296 296 296 296 296 295 295 295 294 294 294 294 295 295 296 296 296 296 296 295 295 295 295 294 294 294 293 292 292 292 291 291 291 291 292 292 292 292 292 292 292 292 292 293 293 293 293 293 293 293 293 293 293 293 293 292 292 292 291 291 291 290 290 289 289 288 288 288 288 288 288 288 288 288 288 288 288 288 288
296 296 295 295 294 294 294 294 294 294 294 294 294 294 295 295 295 295 295 295 295 295 295 294 293 293 293 294 294 293 292 292 291 291 291 291 291 291 290 290 291 291 291 291 291 292 292 292 292 293 293 293 293 293 293 292 292 292 292 292 291 291 290 290 289 289 289 288 287 287 287 286 286 286 286 286 286 286 286 286 286 286 286 287 288
294 294 293 293 293 293 293 293 293 293 293 294 294 294 294 294 294 294 294 294 294 293 293 292 292 292 292 292 292 291 291 291 291 291 291 291 290 290 289 289 289 290 290 291 291 291 291 292 292 292 292 292 292 292 292 291 291 291 291 290 290 289 289 288 288 287 286 286 286 285 285 284 284 284 284 284 284 284 284 284 284 285 285 286 287
292 292 292 292 292 292 292 292 292 292 292 293 293 293 293 293 293 293 293 293 293 292 292 291 291 291 290 290 290 290 290 290 291 291 291 291 290 289 289 288 288 288 289 289 290 290 291 291 291 291 291 291 291 291 290 290 290 289 289 289 288 287 287 287 286 285 285 284 284 284 283 283 282 282 282 282 282 282 283 283 283 284 285 285 286
291 291 291 291 291 291 292 292 292 292 292 292 292 292 292 292 292 292 292 292 291 291 291 291 291 290 290 290 290 290 290 290 290 290 290 290 289 289 288 288 287 288 288 288 289 289 290 290 290 290 290 290 290 289 289 289 288 288 287 287 286 286 285 285 284 284 284 284 283 283 283 282 282 282 282 281 281 281 282 282 283 283 283 284 284
290 290 290 290 290 290 290 291 291 291 291 291 291 291 291 291 291 291 291 291 291 291 291 290 290 290 290 290 290 290 289 289 289 289 289 289 289 289 288 288 288 288 288 288 289 289 290 290 290 290 289 289 289 288 288 287 287 286 286 285 285 285 284 284 284 284 283 283 283 283 282 282 282 282 281 281 281 281 281 281 281 281 281 281 281
288 288 288 289 289 289 289 289 289 289 289 289 290 290 290 290 290 291 291 290 290 290 290 290 290 290 290 290 290 289 289 288 288 289 289 289 289 289 289 289 289 289 289 289 289 289 289 289 289 289 288 288 288 287 286 286 285 285 285 285 284 284 284 284 283 283 283 283 282 282 282 282 282 281 281 281 281 281 281 280 279 279 279 279 279
288 288 288 288 288 287 287 287 288 288 288 288 288 288 288 288 289 289 289 289 289 289 289 289 289 289 289 289 288 288 288 288 288 288 289 289 289 289 289 289 289 289 289 289 289 288 288 288 288 288 287 287 287 286 286 285 285 284 284 284 283 283 283 283 283 283 282 282 282 282 282 281 281 281 281 280 280 280 279 279 279 279 278 278 278
287 287 287 288 288 288 288 288 288 288 288 288 288 287 287 287 287 287 287 287 287 288 288 288 288 288 288 288 288 288 288 288 288 288 289 289 289 289 289 289 289 288 288 288 287 287 287 287 287 287 287 286 286 285 285 284 284 283 283 283 283 283 283 282 282 282 282 282 282 282 281 281 281 280 280 280 279 279 279 279 279 278 278 277 277
286 286 286 286 286 287 287 287 287 287 288 288 288 288 288 288 288 288 287 287 287 287 287 287 287 287 287 287 287 287 287 287 287 288 289 290 290 290 289 288 288 287 287 286 286 285 285 286 286 286 285 285 285 285 284 283 283 282 282 282 282 282 282 282 282 282 282 281 281 281 281 280 280 280 279 279 279 279 279 278 278 278 278 278 278
286 286 285 285 285 285 285 285 285 286 286 286 286 287 287 287 287 287 287 287 287 286 286 286 286 287 287 286 286 286 286 286 286 287 288 289 290 289 289 288 288 287 286 286 285 285 284 284 284 284 284 284 283 283 283 282 282 282 282 282 282 282 282 282 281 281 281 281 281 280 280 280 280 279 279 279 279 279 279 278 279 279 278 278 278
285 285 285 285 285 285 285 285 285 285 285 285 285 285 285 285 285 285 285 285 284 284 284 284 285 285 285 285 285 285 285 285 285 285 287 287 288 288 287 287 286 286 285 285 284 284 283 283 282 282 282 282 281 281 281 281 282 282 282 282 282 282 281 281 281 281 281 281 281 280 280 280 279 279 280 279 279 279 279 279 278 278 278 278 277
283 283 283 284 284 284 284 284 284 284 284 284 284 284 284 284 284 283 283 283 283 283 283 283 283 283 283 283 283 283 283 283 283 284 285 285 285 285 284 284 284 284 284 283 283 283 282 282 281 281 281 281 280 281 281 281 282 282 282 282 282 282 281 281 281 281 281 280 280 280 280 279 280 280 280 279 279 279 279 279 279 278 278 277 277
281 281 282 282 282 282 282 282 282 282 282 282 282 282 282 282 282 282 282 282 282 282 282 282 282 282 282 282 282 282 282 282 282 282 282 282 282 282 282 281 281 281 281 281 281 281 281 281 281 280 280 280 281 281 281 281 282 282 282 282 282 282 281 281 281 281 280 280 279 279 279 279 280 280 280 279 279 279 279 279 278 278 277 277 276
279 280 280 280 280 280 280 280 280 280 280 280 280 280 280 280 280 280 280 280 280 280 280 280 280 280 280 280 280 280 280 280 280 280 280 281 280 280 280 280 280 280 280 280 280 280 281 281 281 281 281 281 281 281 281 282 282 282 282 282 282 282 281 281 280 280 280 279 279 279 279 279 280 280 279 279 279 279 279 278 278 277 277 277 277
278 278 278 278 279 279 279 279 279 279 279 279 279 279 279 279 278 278 278 278 278 278 278 278 278 278 278 278 278 278 278 279 279 279 279 279 279 279 279 279 279 279 279 280 280 280 280 280 280 281 281 281 281 281 282 282 282 281 281 281 281 281 280 280 280 279 279 279 279 279 279 279 279 279 279 279 279 278 278 278 277 277 277 277 277
277 277 277 277 277 278 278 278 278 278 278 278 278 278 278 277 277 277 277 277 277 277 277 277 277 277 277 277 277 277 277 278 278 278 278 279 279 279 279 279 279 279 279 279 279 279 280 280 280 280 281 281 281 281 281 281 281 281 281 280 280 280 279 279 279 279 279 279 279 279 279 278 278 278 278 278 278 278 277 277 277 277 277 277 277
275 276 276 276 276 277 277 277 277 277 277 277 277 277 277 277 277 277 277 277 276 276 276 276 276 276 276 276 277 277 277 277 278 278 278 278 278 278 278 278 278 278 279 279 279 279 279 280 280 280 280 281 281 280 280 280 280 280 280 279 279 279 278 278 278 278 278 278 278 278 278 278 278 278 278 278 278 277 277 277 277 277 277 277 277
275 275 275 275 275 276 276 276 276 276 276 276 276 276 276 276 276 276 276 276 276 276 276 276 276 276 276 276 276 277 277 277 277 277 277 278 278 278 278 278 278 278 278 278 279 279 279 279 279 280 280 280 280 280 280 280 279 279 279 279 278 278 278 278 278 278 277 277 278 278 278 278 278 278 278 278 277 277 277 277 277 277 277 276 276
274 274 274 274 275 275 275 275 275 275 275 276 276 276 276 276 276 276 276 276 276 276 276 276 276 276 276 276 276 276 276 277 277 277 277 277 277 277 277 277 277 277 278 278 278 278 278 278 279 279 279 279 279 279 279 279 279 278 278 278 278 277 277 277 277 278 278 278 278 278 278 278 278 278 278 277 277 277 277 277 277 277 276 276 275
Wind_Speed
28 30 31 32 33 34 34 34 35 36 35 36 36 36 36 36 35 35 35 36 36 36 35 34 33 33 33 33 32 32 33 33 33 33 34 34 34 34 34 34 34 35 35 34 35 34 32 31 30 27 25 24 24 24 24 24 24 24 23 24 25 25 25 26 30 33 32 27 23 20 19 20 20 20 21 21 20 18 18 18 19 20 20 20 21
27 27 29 31 32 32 32 33 34 34 33 33 34 35 35 34 34 34 35 34 34 35 34 34 33 33 33 33 33 33 33 33 33 34 35 34 34 34 33 33 34 34 34 34 34 33 31 29 28 26 25 25 25 25 25 24 24 25 25 25 26 25 25 25 27 31 32 30 28 24 21 21 22 20 21 23 22 20 20 19 19 20 20 20 21
25 25 28 30 29 28 29 31 31 30 31 32 33 34 34 34 34 34 33 32 33 34 34 34 33 33 33 33 33 33 33 33 34 35 35 34 33 33 33 33 34 34 33 33 33 31 30 29 28 27 26 26 26 27 26 25 25 26 26 26 26 26 25 25 27 30 32 32 30 25 22 22 22 21 22 23 22 21 21 21 20 20 19 20 20
23 24 27 28 27 27 28 29 29 29 30 31 32 33 34 34 34 34 33 33 34 35 34 34 33 33 34 34 33 34 34 34 34 34 34 33 33 33 33 33 33 32 32 31 31 31 30 30 30 29 28 28 29 27 26 26 27 27 27 26 26 25 25 25 27 29 30 31 29 25 23 23 22 22 23 22 21 21 21 20 19 19 19 19 19
25 24 26 27 27 28 29 30 30 29 29 30 31 32 33 34 34 33 33 34 35 35 35 34 33 33 34 33 33 33 33 32 33 32 32 32 32 32 31 31 31 30 30 29 29 29 30 30 29 28 28 28 27 26 26 27 27 27 26 25 25 25 25 26 27 28 29 30 28 25 23 23 22 21 20 20 20 20 19 19 19 20 20 19 18
27 26 27 28 29 29 30 31 31 30 30 31 32 32 33 33 34 34 35 35 36 36 35 34 33 32 32 31 30 30 29 30 29 29 30 29 29 29 29 29 29 28 28 28 28 28 29 28 27 26 25 26 26 27 28 28 27 27 27 26 26 27 27 26 25 25 25 26 26 25 23 21 20 19 18 19 20 19 19 19 18 18 20 21 20
28 28 29 31 32 32 32 32 32 31 32 33 33 33 33 33 33 35 36 36 35 35 34 32 31 30 29 28 27 27 26 27 27 27 27 26 27 27 27 28 28 27 27 27 27 28 28 28 27 26 27 27 28 28 28 27 27 27 27 27 27 26 25 23 21 22 23 23 23 23 22 20 18 17 16 16 18 18 20 22 20 19 20 22 22
28 26 27 30 32 33 33 34 35 35 35 35 36 35 33 33 34 36 36 35 34 32 31 29 28 26 26 25 25 25 26 26 26 26 25 25 26 26 27 27 28 27 27 27 27 28 28 28 28 28 28 27 27 27 27 27 27 27 26 26 25 23 22 21 20 20 21 21 20 20 19 18 17 16 15 15 17 18 18 21 23 23 23 24 24
30 26 27 29 30 32 33 34 37 38 38 37 37 36 34 33 34 36 35 33 31 29 28 26 26 26 26 26 26 26 27 27 27 26 26 25 26 26 27 27 27 27 27 27 27 27 28 28 27 27 26 26 26 26 26 26 26 26 25 23 21 20 20 20 20 19 19 19 18 17 17 16 15 15 15 15 17 19 18 20 22 24 26 27 26
34 31 30 28 28 31 34 36 38 39 40 39 38 37 34 34 35 35 33 31 29 27 26 26 26 26 27 27 27 27 28 27 27 27 26 26 26 26 26 27 27 27 26 26 27 27 27 26 26 26 26 26 26 26 26 25 25 24 22 21 20 20 20 20 19 18 18 17 16 15 15 14 13 15 16 16 17 19 19 21 23 24 26 28 28
37 33 31 28 27 29 32 36 38 40 41 41 40 37 35 35 36 34 31 30 29 28 28 28 28 28 28 28 28 28 27 27 26 26 26 26 26 26 26 26 26 26 26 26 26 26 26 26 26 26 27 27 26 25 25 24 23 21 20 20 19 19 19 19 18 17 17 16 15 15 15 14 13 14 16 17 17 19 19 21 23 24 26 28 29
40 36 31 28 28 29 30 34 38 40 41 42 41 39 37 36 36 33 32 31 30 30 30 30 30 29 29 28 28 27 26 25 25 25 25 25 25 25 25 25 25 25 25 26 26 26 26 27 27 27 27 26 25 24 23 22 21 21 19 19 19 18 18 18 17 17 16 16 15 14 15 15 14 13 15 17 18 19 20 20 21 24 26 26 27
40 37 33 31 31 31 30 32 36 39 42 43 42 39 38 37 36 35 33 32 32 32 32 31 31 30 29 29 28 27 26 25 25 25 24 24 25 25 25 25 25 26 26 27 27 27 28 28 28 27 26 25 23 23 22 21 21 20 18 18 18 18 18 17 17 16 16 16 16 14 14 16 15 13 14 17 19 19 20 20 21 23 26 26 27
40 39 38 36 35 34 33 33 35 38 41 44 42 39 38 38 37 36 34 33 33 33 33 32 31 30 29 29 27 27 26 25 25 25 25 25 25 26 26 26 26 27 27 28 28 28 28 27 26 25 24 23 22 22 22 21 20 19 18 18 18 18 18 17 17 17 16 16 16 13 13 16 16 14 14 17 19 20 22 22 22 24 26 27 28
42 42 41 41 40 37 35 35 35 37 42 44 41 39 39 40 38 36 35 34 34 34 33 32 31 30 29 29 28 27 26 25 26 26 26 26 26 26 27 27 27 27 27 27 27 27 26 26 25 24 23 22 22 21 20 19 19 18 17 17 17 17 17 17 17 17 16 16 16 14 14 15 15 14 15 17 19 21 23 24 24 25 27 28 28
45 45 44 43 42 39 36 36 36 37 42 44 41 39 41 41 39 37 35 35 34 33 32 31 30 30 29 28 27 27 26 25 25 26 26 26 26 27 27 27 26 26 26 26 26 26 25 25 24 23 22 21 20 19 19 18 17 18 17 17 17 16 16 17 17 17 16 16 16 15 15 14 15 15 16 17 20 21 24 25 24 25 29 30 30
46 46 46 44 43 39 36 36 35 35 39 43 42 41 42 41 39 38 37 36 35 34 32 31 30 29 29 28 27 26 25 25 25 25 25 26 26 26 27 27 27 27 26 26 26 25 25 24 23 21 20 19 19 18 18 18 18 18 17 16 16 15 15 17 17 16 16 16 16 16 16 15 15 16 16 18 20 23 25 26 25 26 29 30 31
46 46 46 44 42 40 37 36 35 34 36 40 42 42 42 42 40 39 38 36 35 33 32 30 30 29 28 27 26 25 25 25 25 25 25 25 25 26 26 26 27 27 26 26 25 24 23 22 21 20 19 19 19 18 18 17 17 16 16 15 14 14 15 18 18 17 17 17 17 17 16 16 16 17 18 20 21 23 26 27 26 27 29 30 31
46 46 45 43 42 40 38 36 37 37 37 38 41 42 43 43 41 39 38 36 33 32 31 30 30 29 28 27 26 26 25 25 25 25 26 26 25 25 26 26 26 26 25 25 24 23 22 21 20 20 19 19 18 18 17 16 16 15 15 15 14 15 17 19 18 18 18 18 17 17 16 17 18 19 20 22 23 25 27 27 27 27 29 31 31
44 44 43 42 41 41 39 37 38 39 38 38 40 42 43 43 42 40 38 35 33 32 31 30 30 29 29 28 27 27 26 26 26 26 26 26 26 25 25 24 24 24 24 23 23 22 21 21 20 20 19 18 18 17 16 16 16 16 16 16 16 17 19 19 18 18 19 18 17 18 18 18 20 22 23 24 26 27 28 28 28 28 29 31 32
42 41 41 41 41 40 39 38 39 40 40 40 41 43 44 44 43 41 38 36 34 33 32 31 31 30 29 28 27 27 27 26 26 25 26 26 26 25 24 23 22 22 22 22 22 22 21 21 20 19 18 17 17 16 16 16 16 16 17 18 18 19 19 19 19 19 20 20 19 20 20 21 23 25 26 27 28 29 30 30 29 29 29 31 32
40 40 40 41 40 39 38 38 40 42 43 43 44 45 45 45 43 40 38 37 35 34 33 33 33 32 30 29 28 27 27 26 26 26 26 27 27 26 25 24 23 22 22 22 22 22 21 19 18 18 17 16 16 16 16 17 18 18 19 19 20 20 19 19 20 20 20 21 22 22 23 24 25 27 28 29 30 31 31 31 31 30 30 31 32
39 39 39 38 38 37 36 37 39 42 44 44 45 46 46 45 43 41 39 38 37 36 36 35 34 33 32 30 30 29 28 28 27 27 27 27 27 26 25 24 24 23 22 21 20 20 20 19 18 18 17 17 17 17 18 19 20 20 20 20 20 20 20 20 20 21 22 22 24 25 26 27 28 29 30 31 32 32 32 32 32 31 31 31 30
37 38 37 36 35 34 34 34 36 40 43 44 46 47 47 46 45 43 41 40 39 39 38 37 36 34 33 32 31 30 29 28 28 28 27 27 26 26 25 24 23 22 21 20 19 19 19 18 18 18 18 18 19 19 19 20 20 20 20 20 20 20 21 21 22 23 24 25 26 27 28 29 30 31 31 32 32 32 32 32 32 31 31 31 31
34 35 35 34 33 33 33 33 34 37 40 43 45 47 46 46 45 44 42 41 40 40 39 38 36 35 34 33 32 31 30 29 28 28 27 26 25 24 23 22 21 20 19 19 19 20 20 20 20 20 20 20 19 19 20 20 20 20 20 20 20 21 22 23 24 25 26 27 27 28 29 30 31 31 31 31 31 31 31 31 31 31 31 31 31
30 31 32 32 30 30 31 32 33 36 38 41 44 45 44 44 44 43 41 40 40 40 39 37 36 35 34 33 32 31 30 29 28 27 27 25 24 23 21 20 20 21 21 22 23 24 23 22 21 20 19 19 19 19 19 19 19 19 19 20 21 22 23 24 25 26 27 28 29 29 30 30 30 30 30 30 30 30 29 29 30 30 29 29 31
26 27 28 28 26 26 28 30 33 36 38 41 43 42 41 41 41 40 39 39 40 39 38 37 36 35 34 33 32 30 29 27 26 25 24 23 23 22 22 23 24 25 25 25 25 24 22 20 19 18 18 19 19 19 19 19 19 19 20 21 22 23 24 25 26 27 27 28 28 29 29 29 29 29 29 29 29 28 27 27 28 28 27 27 28
21 22 24 23 22 22 25 28 31 34 37 39 40 40 39 39 38 38 38 38 39 38 37 35 34 34 33 32 30 27 25 24 23 22 22 23 24 26 27 28 28 27 26 24 22 21 20 19 19 19 19 19 19 19 19 19 20 21 22 22 23 24 25 25 26 26 26 27 27 27 27 28 28 27 27 27 27 26 25 25 26 26 25 24 25
18 18 19 20 20 20 23 26 29 31 34 36 37 37 38 37 37 37 37 35 33 32 32 31 31 30 29 28 26 24 24 24 24 25 25 26 28 29 29 28 27 25 23 22 21 21 21 21 20 20 20 20 20 20 20 21 22 22 22 23 23 24 25 25 25 25 25 25 26 26 26 26 26 25 25 25 25 24 24 24 24 24 23 22 24
15 15 16 17 18 19 21 24 27 30 32 33 34 35 35 35 35 35 34 32 29 27 27 27 27 26 25 25 24 24 24 24 26 28 29 30 30 29 27 26 25 23 22 22 22 22 21 21 21 21 21 21 21 21 21 21 22 22 23 23 24 24 24 25 25 24 25 25 25 25 25 25 24 23 23 24 25 25 24 23 23 22 21 22 23
11 12 14 15 16 18 20 23 27 29 30 31 30 30 30 29 28 27 26 26 25 24 23 23 24 23 23 24 24 23 24 25 27 29 30 29 28 26 25 24 24 24 24 23 23 22 21 21 21 21 21 20 20 20 21 21 22 22 22 23 23 23 24 24 24 24 24 24 24 24 23 23 23 23 23 24 24 24 23 21 20 20 21 23 24
9 11 13 13 15 17 19 22 24 26 27 27 26 25 25 24 24 23 22 22 22 22 21 21 21 20 20 21 22 23 25 26 27 27 27 26 25 24 23 23 23 24 24 23 22 21 21 20 20 20 20 19 19 20 20 20 21 21 21 22 22 22 22 22 22 22 21 21 21 21 21 21 22 22 21 21 22 23 22 21 21 23 24 25 25
8 10 12 13 15 17 19 20 22 23 23 23 22 21 21 21 21 21 20 20 19 19 18 17 16 16 18 20 22 24 25 26 26 25 24 24 23 22 21 20 21 22 22 21 20 20 20 20 19 19 18 18 18 19 20 20 20 20 20 20 20 19 19 19 19 18 18 18 19 20 21 21 21 22 23 23 23 24 24 23 24 25 25 24 25
5 7 9 11 14 16 17 17 17 17 17 16 15 15 15 15 15 15 15 15 14 13 13 13 14 16 18 20 22 23 23 23 23 22 22 22 22 20 19 18 19 20 20 19 20 20 20 19 18 17 18 18 18 19 19 19 19 19 18 18 17 17 17 18 19 19 20 21 22 23 23 23 23 23 24 23 23 24 25 25 25 24 23 23 24
3 4 5 7 10 11 12 12 11 10 9 9 9 9 9 10 10 11 11 12 11 11 11 12 14 15 16 16 17 17 17 18 19 21 22 22 22 20 18 17 18 18 18 18 19 19 18 18 17 17 18 18 18 18 18 18 18 18 17 17 17 18 19 20 20 21 22 22 22 22 21 21 21 21 21 22 22 23 24 24 22 21 21 21 23
7 7 6 6 6 7 7 7 7 6 6 6 6 6 6 7 8 8 9 9 10 11 11 12 13 13 14 14 14 14 14 16 19 20 21 21 20 19 18 17 17 17 18 18 18 18 18 17 17 17 18 18 18 18 18 17 17 17 17 18 18 18 19 19 19 20 20 20 20 20 20 20 21 20 21 22 22 22 22 22 22 23 25 26 28
6 5 4 3 3 2 2 3 3 4 5 5 6 6 7 7 8 8 9 9 9 10 11 12 13 13 13 14 14 14 15 15 16 17 18 18 18 18 18 18 18 18 19 19 19 18 17 17 16 16 17 17 17 17 17 17 17 17 17 17 17 17 17 17 17 17 18 18 19 19 19 20 21 21 21 23 23 24 25 26 27 28 28 26 26
7 6 5 4 4 2 1 1 1 2 2 3 4 5 6 6 7 8 9 9 9 10 11 12 12 13 13 14 15 15 15 14 15 16 17 18 18 18 19 19 20 20 20 20 19 18 17 16 16 16 16 16 16 16 16 16 16 16 16 15 15 15 15 15 15 15 16 17 17 18 19 20 20 20 21 22 24 25 25 25 26 27 27 25 24
6 6 6 5 5 4 4 3 2 1 1 0 0 1 2 3 5 6 8 9 9 10 11 11 11 12 13 13 14 14 14 14 14 15 15 15 16 16 17 17 18 19 19 19 19 18 17 16 16 16 16 16 16 15 15 14 14 14 14 14 13 13 13 14 14 14 15 16 16 17 18 19 20 20 21 21 23 23 24 25 25 25 27 27 27
5 4 4 4 3 2 2 2 1 1 1 2 2 2 2 2 3 4 5 6 8 9 9 9 10 11 11 11 12 13 13 13 13 13 13 13 14 15 15 16 17 18 19 19 18 17 16 16 16 16 16 16 15 14 14 13 13 12 12 12 11 11 12 12 13 14 14 15 16 17 18 19 20 21 21 21 22 24 25 26 27 27 28 29 29
3 2 2 2 3 3 4 4 4 4 4 4 4 4 5 5 5 5 6 6 7 7 8 9 10 10 10 11 12 13 13 13 13 14 14 14 15 16 16 17 18 18 18 17 16 15 15 15 15 15 15 15 14 14 13 12 11 10 10 10 10 10 11 11 12 13 14 15 16 17 18 19 20 21 22 22 24 25 27 28 29 30 30 31 31
5 5 4 3 2 2 2 3 3 4 5 6 7 7 8 8 9 9 9 9 9 9 10 11 12 13 12 13 13 13 13 13 14 15 15 16 17 18 17 18 19 18 18 17 15 14 14 14 13 13 13 13 12 12 11 11 10 9 9 9 9 10 10 11 12 13 14 15 16 18 19 20 21 22 23 25 26 28 29 30 31 32 33 33 33
6 6 5 5 5 5 5 4 4 4 5 5 5 6 6 7 8 9 9 10 11 11 12 14 15 14 13 13 13 13 14 14 15 16 16 17 17 17 17 18 18 18 17 16 15 14 13 12 11 11 11 10 10 10 10 10 9 8 8 8 9 10 11 12 13 15 16 17 18 19 21 22 23 24 26 27 28 30 31 32 33 34 35 35 35
8 7 7 6 6 5 5 5 5 5 5 5 5 6 6 7 7 8 9 10 10 11 12 13 13 13 13 13 14 14 14 15 15 15 15 15 14 14 15 15 15 15 15 14 13 12 11 10 10 10 10 10 9 9 9 9 8 8 8 8 9 10 12 14 15 17 18 19 21 22 23 24 25 26 28 28 29 30 31 32 34 35 36 36 36
9 8 8 7 7 6 6 5 5 5 5 5 5 5 6 6 6 7 8 9 9 10 10 11 12 12 13 13 14 14 14 14 13 13 12 12 12 12 12 13 13 13 12 11 10 10 9 9 9 9 9 9 9 8 8 9 9 9 9 10 10 12 14 15 17 18 20 21 23 24 25 26 27 28 29 29 29 30 32 33 34 35 36 36 37
9 8 8 7 7 6 6 5 5 5 5 5 5 5 5 5 6 6 7 7 8 9 9 10 11 12 12 13 13 13 12 12 11 10 10 10 10 10 11 11 11 10 9 9 8 8 8 8 8 9 9 9 9 9 9 10 10 11 12 12 13 14 15 17 18 20 21 22 23 25 26 27 28 28 29 29 30 31 32 33 34 34 35 36 37
9 8 8 7 6 6 6 5 5 5 5 5 5 5 5 5 6 6 7 7 8 8 9 10 10 11 11 11 11 10 10 9 9 9 9 9 9 10 10 10 10 9 9 9 9 9 9 9 9 10 10 10 10 10 11 11 12 13 13 14 15 16 17 18 19 20 20 22 23 24 26 27 28 29 29 30 31 31 32 33 33 34 34 35 36
9 8 8 7 7 6 6 6 5 5 5 5 5 5 5 5 5 5 6 6 7 7 8 8 8 9 9 8 8 8 8 8 8 8 8 8 9 9 9 10 10 9 9 10 10 10 10 10 10 10 11 11 11 11 11 12 12 13 14 15 15 16 17 18 19 19 20 21 23 24 26 27 28 29 30 30 31 31 31 32 33 33 34 34 35
9 8 8 8 7 7 7 7 6 6 5 5 5 5 5 5 5 5 5 5 5 5 5 6 6 6 6 6 6 6 6 6 7 7 7 8 8 9 9 9 9 9 9 10 10 9 9 10 10 10 10 10 11 11 11 12 12 13 13 14 15 15 16 17 18 19 20 21 22 24 25 27 28 29 29 30 30 30 31 31 32 33 34 34 35
8 8 8 8 8 8 7 7 7 7 6 6 5 5 5 4 4 4 4 4 4 4 4 4 5 5 5 6 6 6 6 6 7 7 7 8 8 8 8 8 8 8 8 9 9 9 9 9 9 9 10 10 10 11 11 11 12 13 13 13 14 15 16 17 17 18 19 20 23 24 25 27 28 29 29 30 30 30 31 31 32 33 33 34 34
7 7 7 7 8 8 8 7 7 7 7 6 6 5 5 5 4 4 4 4 4 4 4 4 4 5 5 6 6 6 6 6 6 7 7 7 7 7 7 7 7 7 8 8 8 8 8 9 9 9 10 10 11 11 11 12 12 13 13 14 14 15 16 17 17 18 19 20 23 24 25 26 27 28 29 30 30 30 31 31 31 31 32 32 32
Wind_Direction
290 282 274 269 267 269 268 260 251 249 250 252 254 255 255 252 248 245 244 247 249 251 252 253 254 254 253 252 250 249 248 248 248 249 250 250 251 251 251 250 250 250 250 250 251 251 250 251 253 253 251 250 248 248 249 250 253 254 253 256 258 256 256 260 264 271 278 283 284 286 290 294 298 302 304 305 307 309 311 314 316 315 314 315 317
295 284 271 265 266 268 265 255 249 249 251 253 253 253 251 246 241 240 243 247 249 251 252 252 253 252 252 250 248 247 247 247 248 249 249 250 250 250 249 248 248 247 247 247 248 249 249 250 251 249 248 247 246 245 246 247 249 249 247 250 253 252 253 258 263 271 276 280 284 286 289 294 297 300 302 303 307 312 316 319 320 318 320 324 324
294 282 269 265 266 266 260 252 249 250 251 252 251 249 245 241 239 239 243 248 251 252 252 252 252 251 250 248 247 247 246 247 248 248 249 250 249 249 248 247 246 245 245 246 246 247 247 247 247 246 244 243 244 244 243 243 244 245 245 247 250 253 257 260 262 268 273 276 280 285 290 292 295 299 302 306 313 318 319 322 322 322 326 329 327
290 279 269 265 265 263 259 254 250 249 249 249 247 245 243 241 240 241 245 250 253 253 252 252 251 249 248 248 247 247 247 248 249 250 250 250 248 247 246 245 244 244 244 245 246 246 246 246 247 245 242 241 242 242 240 240 242 243 244 245 249 253 258 260 261 264 269 272 278 286 291 292 294 299 304 312 318 319 319 321 323 325 326 325 325
288 277 268 263 261 259 258 256 253 252 251 250 247 244 243 242 243 245 250 253 253 253 253 252 250 249 249 250 249 249 250 250 250 251 251 249 247 245 244 243 243 243 244 246 247 247 246 247 247 245 243 241 241 240 239 240 242 242 244 248 252 255 257 257 258 261 265 270 278 286 289 291 296 303 310 316 317 316 317 319 322 322 321 321 326
289 277 268 262 259 256 255 255 253 254 255 252 248 244 243 244 247 250 253 254 253 253 253 253 251 251 251 251 250 250 250 250 250 250 250 248 246 244 243 243 242 242 243 244 245 246 246 246 244 242 240 238 237 238 239 240 241 241 243 247 250 252 254 256 258 262 267 272 279 285 289 294 300 306 313 315 314 316 316 313 316 318 318 322 330
294 280 270 265 262 257 254 252 250 251 253 252 249 246 246 248 251 253 253 253 252 252 252 252 251 250 250 248 248 247 247 248 249 249 248 246 244 242 242 241 241 241 241 241 241 242 242 242 240 237 236 236 236 237 238 238 239 240 242 244 246 249 254 259 263 266 270 274 278 283 289 295 300 305 311 311 310 312 312 311 315 320 321 325 333
299 288 278 274 269 262 257 254 253 252 252 252 250 249 250 251 252 253 252 251 250 250 250 249 247 246 245 245 244 244 245 245 246 246 245 242 240 239 239 239 239 238 239 239 239 239 239 239 238 236 236 236 235 234 235 236 239 241 243 246 249 253 257 261 262 263 266 270 275 281 287 292 299 305 309 308 305 307 310 312 317 323 325 327 334
298 291 287 285 279 269 262 259 257 256 254 252 252 252 254 254 253 252 251 249 247 246 244 243 242 242 242 242 241 241 241 242 242 242 240 238 236 236 235 236 237 237 238 238 237 238 238 237 235 233 232 231 231 232 234 236 239 242 246 249 252 254 255 256 257 259 263 266 271 277 282 289 298 303 303 302 302 306 311 313 316 322 324 324 329
295 290 288 290 288 278 268 261 259 259 257 255 255 256 257 256 253 250 247 244 242 241 240 240 239 239 239 238 238 238 239 239 239 237 236 234 233 232 233 233 234 235 235 235 234 234 233 231 229 228 229 230 232 234 236 239 242 246 250 252 252 251 251 254 255 258 260 261 265 272 277 284 292 294 296 298 302 306 311 315 318 321 321 320 323
294 290 287 290 291 284 275 268 263 261 261 260 259 259 259 256 250 245 240 238 237 237 237 238 237 236 236 235 235 235 236 236 236 235 234 233 231 230 230 229 229 230 229 229 228 227 225 225 226 228 230 232 234 236 239 242 245 248 249 250 250 250 251 252 253 253 255 255 258 265 272 279 283 286 292 299 303 307 311 315 318 318 318 318 318
294 292 289 290 289 285 280 275 268 264 263 263 262 261 258 252 244 239 236 235 235 235 236 236 235 235 234 234 234 235 235 235 234 234 233 231 229 227 226 225 224 223 222 222 222 222 223 225 227 229 231 233 235 238 241 244 246 247 247 246 246 246 246 247 248 250 251 253 256 261 270 277 279 285 295 299 302 307 310 312 314 312 312 313 312
294 293 292 292 291 287 281 275 270 267 265 264 262 260 254 246 239 235 235 235 235 235 236 235 234 233 233 234 235 235 235 234 233 232 230 227 225 222 220 219 218 218 219 220 222 223 225 227 229 231 232 234 237 239 242 245 245 245 243 241 240 241 242 243 245 248 250 254 258 264 270 275 280 290 298 300 303 307 307 307 308 306 304 305 305
292 293 292 292 293 291 285 278 271 267 267 265 261 255 249 241 236 235 234 235 235 235 234 233 233 233 233 234 235 235 234 233 232 230 227 224 220 218 218 217 218 219 220 222 224 226 227 229 231 232 234 236 238 241 242 242 241 239 237 236 236 237 239 242 245 248 251 255 261 266 268 273 283 293 297 299 303 305 304 303 303 300 299 300 301
290 290 288 288 289 288 286 283 274 265 264 264 258 251 245 239 235 235 235 235 235 234 233 233 232 232 232 232 233 233 233 232 231 229 226 224 221 220 220 221 221 222 222 223 225 226 227 230 232 234 236 237 238 238 237 234 233 232 231 232 234 236 240 243 246 250 255 259 264 268 268 273 284 292 296 298 299 299 298 297 298 298 296 296 298
285 284 282 282 283 282 283 284 277 266 261 260 254 247 242 237 235 236 235 234 233 232 231 231 231 231 230 230 230 231 231 231 230 228 225 224 223 223 222 222 222 222 223 223 224 226 228 231 233 235 235 234 232 229 227 227 227 229 230 232 233 235 240 244 246 252 259 264 267 270 272 276 282 288 292 294 293 293 291 291 294 294 293 295 299
280 279 279 278 279 280 280 281 278 268 261 257 252 245 241 237 235 235 233 232 232 230 229 228 228 228 227 228 229 230 230 230 228 226 224 223 223 222 221 220 220 221 222 224 226 228 229 230 231 230 227 224 223 223 224 225 226 229 230 231 233 236 241 246 249 254 259 262 265 269 273 277 282 286 290 290 290 289 288 289 292 292 291 294 298
277 277 277 278 279 281 280 277 275 271 263 256 251 245 240 237 235 234 233 232 231 229 227 226 226 225 225 226 227 228 228 227 225 223 221 220 221 222 222 221 221 221 223 224 225 225 224 222 221 220 219 220 221 223 224 226 227 230 232 234 236 238 242 247 251 253 256 258 262 267 274 281 285 289 290 289 288 287 287 289 290 289 290 293 296
276 276 278 280 281 282 279 275 272 271 265 258 251 244 240 237 234 232 232 231 228 226 225 224 223 222 222 222 222 223 222 221 221 220 219 219 221 222 224 224 223 222 220 219 218 216 215 215 216 218 220 221 223 224 225 228 231 234 238 240 240 239 243 248 252 256 259 262 267 273 279 284 287 288 288 287 286 286 286 288 288 288 290 292 293
277 280 282 282 282 281 278 272 270 269 266 259 250 243 238 235 232 230 229 226 222 221 221 221 219 219 220 220 219 220 219 217 217 219 220 220 221 222 223 222 221 219 215 213 213 213 214 215 218 220 222 224 226 227 228 231 234 238 242 245 246 246 250 255 260 264 268 272 277 282 285 287 288 288 287 287 286 287 287 288 288 288 289 290 291
281 283 283 282 282 280 277 272 268 267 263 255 247 240 236 233 231 228 226 222 219 217 216 215 215 215 217 218 218 218 217 216 216 218 220 220 219 217 216 215 215 215 214 213 214 215 217 217 218 220 223 225 229 232 235 238 241 244 246 249 252 254 257 262 266 271 276 281 285 287 289 289 288 287 287 287 287 288 288 289 289 288 287 287 287
281 281 281 281 281 279 276 272 268 264 259 251 244 238 234 231 228 226 222 218 216 214 212 211 212 213 214 215 217 217 217 216 217 218 217 216 213 211 210 210 211 214 215 217 217 218 219 219 219 221 224 227 231 236 240 244 246 248 250 253 257 262 266 270 274 278 283 287 290 290 290 288 287 286 287 288 288 288 287 287 287 286 284 284 284
277 278 278 279 279 278 275 272 267 262 257 249 242 236 231 227 223 220 217 215 213 211 209 209 210 211 211 212 214 215 215 215 215 214 213 212 210 210 211 211 212 214 216 218 220 221 221 221 222 223 225 228 231 235 240 245 249 253 257 261 265 270 274 278 282 285 288 289 290 289 289 288 288 288 288 288 288 287 287 286 286 285 284 283 282
278 279 278 278 278 277 274 270 266 261 255 247 239 233 229 224 220 216 213 212 210 208 208 208 209 209 209 210 211 212 213 212 211 210 210 211 211 211 212 213 214 216 217 220 223 226 227 227 229 231 231 231 233 237 242 248 253 259 263 267 271 275 279 282 286 288 289 289 289 289 288 288 288 288 288 288 287 286 287 287 287 287 287 287 286
281 282 281 279 278 276 271 266 261 257 252 244 236 231 227 222 218 213 210 209 209 208 208 207 207 207 208 209 211 210 209 207 207 208 209 210 212 213 212 212 213 214 218 223 227 231 233 232 232 234 234 235 238 242 246 251 256 260 264 269 274 278 282 285 286 288 288 289 289 289 288 288 287 287 287 287 287 288 290 291 291 292 292 293 292
282 283 281 279 277 275 269 262 256 251 246 239 232 228 225 221 217 213 209 208 208 208 207 205 204 205 206 207 208 207 206 204 206 209 211 211 211 212 213 216 219 220 222 225 227 228 230 231 232 235 238 241 245 249 252 256 259 264 269 274 277 280 282 284 285 286 287 288 288 287 287 287 287 287 288 289 290 291 293 294 295 295 296 297 297
284 284 280 277 275 271 265 259 252 245 238 232 227 223 221 218 216 213 209 206 206 206 205 203 202 202 202 203 204 204 203 203 205 209 213 215 218 221 224 226 227 226 225 225 226 228 231 235 238 241 245 248 252 255 259 262 266 269 273 275 277 278 280 281 283 284 285 286 286 285 286 286 287 289 290 291 292 293 295 297 297 298 300 301 300
287 284 278 274 270 264 257 251 245 237 230 223 218 215 213 212 211 210 208 206 206 205 204 202 201 200 200 199 199 199 202 207 214 221 226 231 235 235 233 229 227 225 226 227 229 232 236 239 242 245 248 251 255 258 261 264 267 269 272 274 276 278 279 280 282 283 284 284 284 285 287 288 289 291 292 293 294 295 298 300 300 302 304 303 301
288 285 277 269 262 255 248 241 234 227 219 213 209 206 205 205 206 206 206 205 205 205 203 199 197 197 197 197 201 208 215 222 228 234 239 242 239 235 232 230 229 228 228 230 232 235 237 240 243 246 248 251 253 256 259 262 266 269 272 274 276 278 279 281 282 283 284 286 287 288 290 291 292 294 295 296 297 300 302 303 303 303 302 299 298
285 280 272 263 256 249 242 234 225 216 210 205 201 197 196 197 199 200 200 199 197 198 198 197 196 197 201 205 210 216 221 225 229 232 236 237 235 231 231 233 233 232 232 232 234 235 237 240 242 244 246 248 251 254 259 263 267 270 273 275 277 279 281 283 285 286 287 288 289 290 292 294 296 298 299 300 302 303 304 303 301 298 295 294 295
274 267 260 253 246 239 232 223 215 208 204 200 196 192 189 188 189 193 196 197 197 199 201 204 206 208 211 212 210 210 215 223 227 227 228 228 228 229 230 232 232 233 233 233 234 235 237 239 242 244 247 251 255 259 264 267 270 273 275 277 279 281 283 284 285 286 287 288 290 293 296 298 300 301 301 301 300 300 300 296 292 290 289 291 293
257 247 239 230 221 216 212 207 202 199 197 196 196 197 196 194 193 195 198 202 205 208 210 211 210 209 212 214 212 211 216 221 223 224 224 226 228 230 232 232 233 234 235 235 237 239 241 244 246 250 254 259 263 267 269 271 273 275 277 279 280 281 283 284 285 286 289 292 295 297 298 299 299 298 296 293 292 292 291 289 287 289 291 293 293
241 229 219 211 203 198 195 192 192 192 192 193 195 199 203 205 204 203 203 205 207 210 212 211 209 209 214 218 218 217 217 220 222 225 228 230 232 234 237 239 241 241 241 242 244 245 246 249 252 256 261 264 267 269 270 271 273 274 275 277 279 281 282 283 284 287 289 289 289 289 288 287 285 283 284 285 285 286 288 289 292 295 297 296 293
233 219 207 198 192 188 185 185 188 190 192 196 200 204 209 213 214 214 213 212 212 213 214 213 211 212 215 217 219 219 220 223 226 228 230 232 236 239 243 245 247 248 247 247 248 248 249 252 255 259 261 263 264 265 266 268 270 271 273 274 274 275 276 277 281 284 285 285 285 285 284 283 282 284 288 290 290 290 293 297 302 303 302 298 294
111 151 170 179 181 179 178 180 184 188 193 199 205 211 216 218 220 221 221 220 218 217 216 215 214 214 216 218 220 223 228 233 236 238 240 242 245 247 247 247 250 252 250 248 246 247 249 252 254 257 260 262 264 265 266 268 269 269 270 272 272 273 276 280 284 287 288 289 291 291 291 290 290 291 293 293 294 297 302 307 309 305 300 297 295
86 101 116 135 152 161 166 172 176 183 191 198 202 210 215 217 218 218 216 215 214 214 217 219 220 222 226 229 231 231 234 239 243 246 250 253 255 256 255 254 253 253 251 250 249 250 252 255 258 261 264 265 267 268 268 269 270 270 272 275 276 280 284 287 290 292 293 295 297 298 299 298 297 297 295 295 297 299 300 300 298 293 291 292 292
59 68 79 93 108 133 161 181 190 199 207 212 215 219 222 226 228 229 227 225 222 221 224 227 228 230 234 239 241 241 241 243 247 251 256 260 263 265 265 264 262 260 260 261 261 261 262 263 265 266 268 268 270 272 273 274 276 277 279 282 284 287 290 293 295 297 299 302 303 305 307 306 306 306 304 303 303 302 299 298 297 297 297 298 297
49 46 42 36 30 22 7 321 262 252 249 242 237 236 234 234 236 237 236 233 229 229 231 233 235 238 241 244 247 249 248 248 251 255 259 263 266 268 269 270 271 271 272 272 271 271 271 271 271 271 272 273 275 276 278 279 281 283 284 285 287 289 291 294 298 301 304 307 310 310 311 311 312 313 312 310 311 312 311 310 309 307 306 305 301
70 66 61 55 46 37 33 37 43 53 71 96 203 227 235 240 242 241 239 238 236 236 238 240 243 245 246 247 248 249 248 248 251 257 260 263 266 268 269 271 272 273 273 273 274 274 274 274 274 273 274 275 276 276 278 279 279 281 283 285 288 291 293 298 303 306 309 312 313 313 315 317 318 320 320 320 321 322 321 320 320 319 317 314 309
98 105 110 112 112 106 97 85 77 84 104 124 128 130 145 171 197 219 230 233 234 234 234 236 238 239 239 237 236 237 239 240 245 251 256 259 262 265 266 267 268 270 272 273 273 274 274 274 275 274 273 274 274 274 275 276 277 280 284 287 291 296 299 303 306 309 311 312 314 317 320 322 324 324 325 327 327 326 326 326 326 325 322 318 316
32 54 94 135 162 172 177 185 193 195 197 196 191 190 192 194 198 206 213 218 223 227 226 226 227 228 230 231 230 232 236 237 240 246 252 258 262 264 266 268 268 269 271 273 274 276 277 277 276 274 272 271 271 270 271 274 278 281 286 290 295 299 303 306 309 311 313 316 319 322 324 325 325 325 326 328 328 327 327 326 324 322 320 319 320
342 339 336 327 313 291 267 249 232 221 218 215 211 210 209 208 209 213 215 218 222 224 224 228 232 234 236 238 238 239 242 244 246 250 254 258 263 265 265 266 267 267 268 269 271 273 273 272 271 270 268 267 268 269 270 273 276 280 285 292 299 303 308 311 313 315 316 319 321 323 323 323 324 324 325 327 327 326 326 324 323 323 322 322 323
326 323 319 313 308 302 296 290 283 273 265 256 248 242 235 230 227 226 224 224 226 227 229 236 242 245 247 249 250 249 249 250 250 252 252 254 257 259 258 258 260 261 263 265 265 265 265 263 263 264 265 265 266 267 268 271 275 281 288 297 304 309 313 316 317 318 320 321 322 322 321 322 322 323 325 327 327 325 325 324 324 324 323 323 323
321 319 317 315 311 307 301 293 286 279 272 266 262 258 256 253 250 249 247 244 244 244 244 248 254 257 258 259 260 259 259 258 257 257 256 255 255 256 256 257 259 260 261 261 260 259 258 258 260 262 265 267 269 273 277 282 287 292 296 301 308 314 316 318 319 319 320 320 319 319 318 319 321 322 324 325 325 324 324 324 324 323 323 322 322
323 320 320 318 316 315 313 308 302 295 288 283 276 267 261 257 252 250 250 249 249 250 251 253 257 259 260 262 263 264 264 263 262 261 260 258 256 256 256 258 259 260 261 260 259 256 255 255 258 262 266 271 277 284 289 294 299 302 305 308 313 315 316 317 316 317 317 316 316 316 316 317 318 320 321 322 322 323 322 322 322 321 321 321 320
334 332 330 327 324 324 322 319 316 312 306 303 298 290 283 278 269 263 261 258 255 255 255 255 257 260 260 261 262 261 261 260 258 255 253 252 250 250 251 252 254 256 257 256 254 253 252 254 256 260 265 272 280 286 292 297 301 304 306 309 311 312 313 312 312 312 313 312 311 312 313 314 315 317 319 320 321 321 320 320 319 318 319 320 320
350 347 343 340 337 335 334 333 333 330 326 323 318 311 304 297 289 282 278 273 269 267 265 263 263 263 261 259 257 254 251 249 247 245 245 243 242 243 245 247 249 251 252 253 253 255 257 259 261 264 269 274 280 286 291 295 300 303 305 308 309 309 308 307 307 308 309 309 309 311 312 314 316 318 319 320 320 319 318 318 317 317 318 319 318
2 359 355 353 351 347 345 345 345 342 341 341 337 330 322 314 307 299 291 284 281 278 274 271 269 266 262 258 254 249 245 243 241 240 239 238 238 241 243 247 251 254 256 258 260 261 263 265 268 271 275 279 283 289 294 297 300 303 305 306 306 305 304 304 306 308 310 310 311 312 314 315 317 318 318 318 318 317 316 316 316 317 318 318 317
9 8 6 3 359 357 355 353 350 348 346 346 344 339 334 329 322 314 306 300 294 287 279 274 270 265 261 257 253 250 249 245 243 242 241 241 242 245 248 251 255 258 260 263 264 266 268 270 273 277 280 285 289 294 298 300 302 303 303 303 303 304 305 307 309 310 311 311 312 314 315 316 317 317 317 317 317 316 315 316 317 318 319 318 317
8 8 9 7 5 4 1 357 353 350 346 342 339 336 331 328 324 318 312 306 297 288 280 275 269 264 263 261 259 259 258 254 251 250 249 248 248 249 251 254 257 260 263 267 270 273 276 279 281 284 288 290 293 296 299 301 302 303 303 304 305 307 308 308 308 310 312 313 315 316 316 316 316 316 317 317 316 315 315 317 318 319 319 318 316
3 4 6 5 3 3 1 357 355 352 348 343 340 334 327 322 316 309 303 298 291 284 278 274 269 267 264 263 262 262 260 257 255 254 251 251 252 254 256 260 264 267 272 276 278 281 285 288 289 291 293 293 295 298 300 302 303 304 305 307 308 308 307 307 308 312 314 315 315 315 315 315 315 316 316 316 315 315 316 317 318 318 317 314 312